Regional Weather Roundup
Issued by NWS

Home | Current Version | Previous Version | Text Only | Print | Product List | Glossary On
Versions: 1 2 3 4 5 6 7 8 9 10 11 12 13 14 15 16 17 18 19 20 21 22 23 24 25 26 27 28 29 30 31 32 33 34 35 36 37 38 39 40 41 42 43 44 45 46 47 48 49 50
310
ASUS43 KBIS 190210
RWRND

NORTH DAKOTA REGIONAL WEATHER ROUNDUP
NATIONAL WEATHER SERVICE BISMARCK ND
800 PM CST SAT NOV 18 2017

NOTE: "FAIR" INDICATES FEW OR NO CLOUDS BELOW 12,000 FEET WITH NO
SIGNIFICANT WEATHER AND/OR OBSTRUCTIONS TO VISIBILITY.


NDZ001>003-009>011-017-190300-
NORTHWEST NORTH DAKOTA

CITY           SKY/WX    TMP DP  RH WIND       PRES   REMARKS
WILLISTON      CLEAR     26  18  71 W12       30.01F WCI  16
MINOT          CLOUDY    17  10  74 CALM      30.00F
MINOT AFB      CLOUDY    11   7  84 S5        29.99F WCI   2
$$

NDZ018>021-031>035-040>046-190300-
SOUTHWEST NORTH DAKOTA

CITY           SKY/WX    TMP DP  RH WIND       PRES   REMARKS
BISMARCK       CLOUDY    25  18  74 CALM      30.08F
DICKINSON      CLOUDY    28  21  75 W13       30.02F WCI  17
GARRISON         N/A     22  16  78 W9        30.01F WCI  12
HETTINGER ARPT CLOUDY    25  18  74 W6        30.09S WCI  18
$$

NDZ004>008-012>016-024-026-027-054-190300-
NORTHEAST NORTH DAKOTA

CITY           SKY/WX    TMP DP  RH WIND       PRES   REMARKS
GRAND FORKS    PTCLDY    16   8  71 NW12      30.04F WCI   3
GRND FRKS AFB  FLURRIES  16   5  62 W10       30.03F WCI   3
DEVILS LAKE    CLEAR     12   8  84 W9        30.03F WCI   0
$$

NDZ022-023-025-028>030-036>039-047>053-190300-
SOUTHEAST NORTH DAKOTA

CITY           SKY/WX    TMP DP  RH WIND       PRES   REMARKS
FARGO          CLEAR     15   8  73 W7        30.08S WCI   5
JAMESTOWN      CLEAR     17  11  77 W6        30.05F WCI   9
$$





USA.gov is the U.S. government's official web portal to all federal, state and local government web resources and services.